This is the latest recevied weather packets stored in our database for station/object KD4UFD. If no packets are shown the sender has not sent any weather packets the latest 10 day(s).
| Time | Temp. | Humidity | Pressure | Rain* | Wind** | Luminosity | Snow |
|---|---|---|---|---|---|---|---|
| 1778166569 | 12.78° C | 92% | 1013.8 hPa | 0 mm | - | 192 W/m² | - |
| 1778166266 | 12.78° C | 93% | 1013.9 hPa | 0 mm | - | 216 W/m² | - |
| 1778165963 | 12.22° C | 93% | 1013.9 hPa | 0 mm | - | 291 W/m² | - |
| 1778165658 | 12.22° C | 94% | 1013.6 hPa | 0 mm | - | 267 W/m² | - |
| 1778165355 | 12.22° C | 94% | 1013.8 hPa | 0 mm | - | 193 W/m² | - |
| 1778165053 | 12.22° C | 94% | 1013.7 hPa | 0 mm | - | 129 W/m² | - |
| 1778164749 | 12.22° C | 94% | 1013.9 hPa | 0 mm | - | 115 W/m² | - |
| 1778164447 | 12.22° C | 94% | 1013.7 hPa | 1.78 mm | - | 106 W/m² | - |
| 1778164143 | 12.22° C | 94% | 1013.7 hPa | 1.78 mm | - | 78 W/m² | - |
| 1778163839 | 12.22° C | 94% | 1013.5 hPa | 0 mm | - | 78 W/m² | - |
| 1778163536 | 12.22° C | 94% | 1013.3 hPa | 0 mm | - | 86 W/m² | - |
| 1778163232 | 12.22° C | 94% | 1013.2 hPa | 0 mm | - | 68 W/m² | - |
| 1778162929 | 12.78° C | 93% | 1013.2 hPa | 0 mm | - | 61 W/m² | - |
| 1778162626 | 12.78° C | 94% | 1013.2 hPa | 0 mm | - | 58 W/m² | - |
| 1778162324 | 12.22° C | 93% | 1013.1 hPa | 0 mm | - | 46 W/m² | - |
| 1778162020 | 12.22° C | 93% | 1013.2 hPa | 0 mm | - | 64 W/m² | - |
| 1778161718 | 12.78° C | 94% | 1013.2 hPa | 0 mm | - | 64 W/m² | - |
| 1778161414 | 12.78° C | 94% | 1013 hPa | 0 mm | - | 50 W/m² | - |
| 1778161110 | 12.78° C | 94% | 1013 hPa | 0 mm | - | 67 W/m² | - |
| 1778160805 | 12.78° C | 94% | 1012.9 hPa | 0 mm | - | 88 W/m² | - |
| 1778160505 | 12.78° C | 94% | 1012.9 hPa | 0 mm | - | 83 W/m² | - |
| 1778160200 | 12.78° C | 94% | 1012.8 hPa | 0 mm | - | 79 W/m² | - |
| 1778159898 | 12.78° C | 95% | 1012.9 hPa | 0 mm | - | 72 W/m² | - |
| 1778159594 | 12.22° C | 95% | 1012.9 hPa | 0 mm | - | 71 W/m² | - |
| 1778159291 | 12.22° C | 95% | 1012.9 hPa | 0 mm | - | 74 W/m² | - |
* Rain latest hour (hover to see other rain measurements)
** Current wind speed in m/s (hover to see current wind gust speed)